Preview of NWS' New Version of Forecast
This preview is not operational and should not be used for support decisions.

Regional Weather Roundup (RWR)

Issued by National Weather Service (NWS)

                            
000
ASUS43 KLSX 200007
RWRMO 

WEATHER SUMMARY FOR MISSOURI
NATIONAL WEATHER SERVICE SPRINGFIELD MO
700 PM CDT WED JUN 19 2019

NOTE: "FAIR" INDICATES FEW OR NO CLOUDS BELOW 12,000 FEET WITH NO
       SIGNIFICANT WEATHER AND/OR OBSTRUCTIONS TO VISIBILITY.
       CURRENT SKY AND/OR WEATHER CONDITIONS ARE NOT AVAILABLE FOR
       CHILLICOTHE AND FARMINGTON.

MOZ001>031-035>038-043-044-053-054-200100-
...NORTHERN AND WESTERN MISSOURI...
  
CITY           SKY/WX    TMP DP  RH WIND       PRES   REMARKS
KANSAS CTY INT PTSUNNY   73  65  75 N8        29.71S                  
6HR MIN TEMP:  68; 6HR MAX TEMP:  76; 6HR PCP: TRACE;                

KANSAS C DTWN  MOSUNNY   77  63  61 N12       29.69S                  
6HR MIN TEMP:  70; 6HR MAX TEMP:  79; 6HR PCP:  0.01;                

LEE'S SUMMIT   MOSUNNY   74  61  63 N10       29.70S                  
6HR MIN TEMP:  69; 6HR MAX TEMP:  78;                                

ST JOSEPH      PTSUNNY   73  64  73 N7        29.71S                  
6HR MIN TEMP:  70; 6HR MAX TEMP:  76; 6HR PCP: TRACE;                

CHILLICOTHE      N/A     68  66  93 VRB3      29.71S                  
6HR MIN TEMP:  67; 6HR MAX TEMP:  72;                                

KIRKSVILLE     CLOUDY    67  64  90 N9        29.68R                  
6HR MIN TEMP:  66; 6HR MAX TEMP:  71; 6HR PCP:  0.42;                

     
$$
MOZ066>068-077>081-088>096-101>105-200100-
...SOUTHWEST MISSOURI...
  
CITY           SKY/WX    TMP DP  RH WIND       PRES   REMARKS
SPRINGFIELD    CLOUDY    77  65  66 NW8       29.70F                  
6HR MIN TEMP:  76; 6HR MAX TEMP:  80;                                

JOPLIN         CLOUDY    78  67  68 NW7       29.71F                  
6HR MIN TEMP:  74; 6HR MAX TEMP:  80;                                

BRANSON        MOSUNNY   81  66  61 W7        29.72F                  
               
$$
MOZ032>034-039>042-045>050-055>058-069>072-200100-
...CENTRAL MISSOURI...  
  
CITY           SKY/WX    TMP DP  RH WIND       PRES   REMARKS
COLUMBIA       PTSUNNY   76  66  71 W12       29.65S                  
6HR MIN TEMP:  69; 6HR MAX TEMP:  78; 6HR PCP:  0.08;                

ROLLA          LGT RAIN  75  66  73 SW12      29.67F                  
6HR MIN TEMP:  70; 6HR MAX TEMP:  77; 6HR PCP:  0.01;                

SEDALIA        MOSUNNY   73  65  75 NW13G21   29.68S                  
6HR MIN TEMP:  70; 6HR MAX TEMP:  79;                                

WHITEMAN AFB   PTSUNNY   75  65  71 NW13      29.64S                  
WARRENSBURG    MOSUNNY   73  63  68 NW12G24   29.69R                  
OSAGE BEACH    PTSUNNY   76  68  76 W7        29.68F                  
               
$$
MOZ051-052-059>065-200100-
...EAST CENTRAL MISSOURI...
  
CITY           SKY/WX    TMP DP  RH WIND       PRES   REMARKS
ST LOUIS INTL  PTSUNNY   79  64  60 W10       29.63F                  
6HR MIN TEMP:  77; 6HR MAX TEMP:  80; 6HR PCP: TRACE;                

SPIRIT OF STL  CLOUDY    79  67  66 SW6       29.62F                  
6HR MIN TEMP:  75; 6HR MAX TEMP:  80;                                

ST CHARLES       N/A    N/A N/A N/A MISG      29.61F                  
                   
$$
MOZ072>076-082>087-097>100-106>115-200100-
...SOUTH CENTRAL AND SOUTHEAST MISSOURI...
  
CITY           SKY/WX    TMP DP  RH WIND       PRES   REMARKS
CAPE GIRARDEAU FAIR      81  71  71 S5        29.64F                  
6HR MIN TEMP:  72; 6HR MAX TEMP:  85; 6HR PCP:  0.05;                

FARMINGTON     SUNNY     79  67  66 VRB5      29.67F                  
6HR MIN TEMP:  75; 6HR MAX TEMP:  81; 6HR PCP: TRACE;                

POPLAR BLUFF   FAIR      85  69  58 W7        29.64F                  
6HR MIN TEMP:  72; 6HR MAX TEMP:  86; 6HR PCP:  0.30;                

WEST PLAINS    MOSUNNY   80  69  69 NW6       29.70F                  
6HR MIN TEMP:  78; 6HR MAX TEMP:  84;                                

                                       
$$